Other Public Products
Issued by NWS Charleston, SC

Current Version | Previous Version | Graphics & Text | Print | Product List | Glossary On
Versions: 1 2 3 4 5 6 7 8 9 10 11 12 13 14 15 16 17 18 19 20 21 22 23 24 25 26 27 28 29 30 31 32 33 34 35 36 37 38 39 40 41 42 43 44 45 46 47 48 49 50
000
FPUS82 KCHS 190413
OPUCHS

TEST...KCHS/KSAV Gateway Observations...TEST
National Weather Service Charleston SC
1200 AM EDT SAT AUG 19 2017

NOTE: "fair" indicates few or no clouds below 12,000 feet with no
significant weather and/or obstructions to visibility.

SCZ050-WAZ558-NCZ071-TXZ119-213-PAZ071-DCZ001-FLZ074-172-MI076-
NYZ176-178-MAZ016-IL014-TNZ027-NJZ106-GAZ044-MD014-190500-

...Gateway Observations for Charleston International...

CITY           SKY/WX    TMP DP  RH WIND       PRES   REMARKS
Chas Airport   FAIR      82  79  90 S9        29.94S HX  92
Seattle        MOCLDY    69  56  62 N10       30.14R
Charlotte      FAIR      78  73  84 CALM      29.94S
Dallas DFW     FAIR      83  75  77 CALM      29.96R HX  90
Dallas Love    FAIR      85  75  72 E5        29.97R HX  93
Philladelphia  CLOUDY    76  73  91 SW10      29.83F
Wash National  CLOUDY    78  77  96 S6        29.85F
Baltimore      MOCLDY    75  75 100 SW5       29.85F
Miami          FAIR      82  74  76 NW3       30.04F
Detroit        FAIR      67  60  78 W7        29.89R
Newark         MOCLDY    74  72  93 SW7       29.82R
Laguardia      LGT RAIN  76  72  87 SW9       29.80S
J F K          CLOUDY    74  73  97 W12       29.83R
Boston Logan   CLOUDY    74  73  97 S8        29.81R FOG
Ft. Lauderdale FAIR      84  75  74 CALM      30.03F HX  92
Chicago O`Hare MOCLDY    73  60  63 NW8       29.89R
Chicago Midway MOCLDY    75  61  61 NW6       29.87F
Houston Bush   FAIR      85  75  72 S7        30.00R HX  93
Houston Hobby  FAIR      85  76  74 S8        29.99R HX  94
Nashville      FAIR      72  67  84 S6        30.00S
Atlanta        FAIR      76  67  73 W6        30.00S

$$

GAZ044-118-TXZ119-213-NCZ071-DCZ001-MDZ014-506-PAZ021-071-NJZ106-
NYZ176-178-MAZ106-OHZ011-021-055-MIZ076-KYZ091-ILZ014-INZ047-
MNZ060-ONZ431-190500-

...Gateway Observations for Savannah International...

CITY           SKY/WX    TMP DP  RH WIND       PRES   REMARKS
Savannah Arpt  FAIR      81  74  79 S9        29.97S
Atlanta        FAIR      76  67  73 W6        30.00S
Charlotte      FAIR      78  73  84 CALM      29.94S
Dallas DFW     FAIR      83  75  77 CALM      29.96R HX  90
Houston Bush   FAIR      85  75  72 S7        30.00R HX  93
Wash National  CLOUDY    78  77  96 S6        29.85F
Wash Dulles    CLOUDY    76  76 100 CALM      29.86F
Baltimore      MOCLDY    75  75 100 SW5       29.85F
Philadelphia   CLOUDY    76  73  91 SW10      29.83F
Newark         MOCLDY    74  72  93 SW7       29.82R
Laguardia      LGT RAIN  76  72  87 SW9       29.80S
J F K          CLOUDY    74  73  97 W12       29.83R
Boston         CLOUDY    74  73  97 S8        29.81R FOG
Pittsburg      FAIR      72  64  76 SW5       29.92R
Akron          FAIR      71  60  68 W3        29.91R
Cleveland      FAIR      72  63  73 SW6       29.91R
Cincinnati     FAIR      72  66  81 W5        29.94S
Columbus       FAIR      69  64  85 SW3       29.92R
Detroit        FAIR      67  60  78 W7        29.89R
Chicago O`Hare MOCLDY    73  60  63 NW8       29.89R
Minneapolis    MOCLDY    67  60  78 S3        29.92S
Indianapolis   FAIR      70  63  78 SW7       29.93R
Toronto Canada MOCLDY    68  63  83 W13       29.78R

$$




USA.gov is the U.S. government's official web portal to all federal, state and local government web resources and services.